DW4779 Weather Reports


Display with metric or nautical units.
time (UTC)temp
F
wind
direction
speed
MPH
gust
MPH
rain 1hr
in
rain 24hr
in
rain mn
in
humidity
%
barometer
mb
20260510194542 77 224 8.0 12.0 0.00 0.00 0.00 21 1013.9
20260510193047 77 190 5.0 13.0 0.00 0.00 0.00 21 1014.3
20260510191546 77 224 1.0 11.0 0.00 0.00 0.00 21 1014.3
20260510190056 76 0 2.0 14.0 0.00 0.00 0.00 23 1014.4
20260510184545 75 224 1.0 11.0 0.00 0.00 0.00 28 1014.5
20260510183044 74 224 3.0 10.0 0.00 0.00 0.00 28 1014.7
20260510181606 74 190 4.0 13.0 0.00 0.00 0.00 27 1015.0
20260510180052 72 190 5.0 11.0 0.00 0.00 0.00 28 1015.4
20260510174558 72 190 8.0 14.0 0.00 0.00 0.00 27 1015.5
20260510173049 71 190 9.0 14.0 0.00 0.00 0.00 28 1015.6
20260510171558 70 190 4.0 12.0 0.00 0.00 0.00 33 1015.8
20260510170051 70 224 4.0 11.0 0.00 0.00 0.00 34 1015.8
20260510164557 68 190 6.0 12.0 0.00 0.00 0.00 36 1016.0
20260510163054 67 190 5.0 9.0 0.00 0.00 0.00 40 1016.1
20260510161547 65 190 4.0 8.0 0.00 0.00 0.00 43 1016.3
20260510160047 64 190 3.0 7.0 0.00 0.00 0.00 44 1016.5
20260510154543 62 224 6.0 8.0 0.00 0.00 0.00 45 1016.7
20260510153046 60 190 4.0 8.0 0.00 0.00 0.00 47 1017.0
20260510151546 58 190 6.0 10.0 0.00 0.00 0.00 51 1017.2
20260510150051 57 224 2.0 6.0 0.00 0.00 0.00 55 1017.4
20260510144557 54 190 3.0 6.0 0.00 0.00 0.00 61 1017.5
20260510143051 53 190 4.0 7.0 0.00 0.00 0.00 63 1017.6
20260510141543 52 190 2.0 4.0 0.00 0.00 0.00 65 1017.6
20260510140042 50 224 2.0 3.0 0.00 0.00 0.00 68 1017.5
20260510134542 48 190 1.0 2.0 0.00 0.00 0.00 72 1017.7
20260510133047 45 0 0.0 0.0 0.00 0.00 0.00 77 1017.7
20260510131547 43 0 0.0 1.0 0.00 0.00 0.00 80 1017.8
20260510130046 41 45 0.0 1.0 0.00 0.00 0.00 83 1017.8
20260510124542 40 0 0.0 0.0 0.00 0.00 0.00 82 1017.8
20260510123042 40 0 0.0 0.0 0.00 0.00 0.00 83 1017.8
20260510121539 39 0 0.0 0.0 0.00 0.00 0.00 84 1017.8
20260510120046 39 0 0.0 1.0 0.00 0.00 0.00 83 1017.8
20260510114556 39 0 0.0 0.0 0.00 0.00 0.00 83 1017.8
20260510113047 39 0 0.0 0.0 0.00 0.00 0.00 81 1017.8
20260510111543 40 0 0.0 2.0 0.00 0.00 0.00 79 1017.7
20260510110050 40 0 0.0 2.0 0.00 0.00 0.00 80 1017.9
20260510104548 40 0 0.0 1.0 0.00 0.00 0.00 81 1017.9
20260510103043 40 0 0.0 2.0 0.00 0.00 0.00 80 1017.9
20260510101558 40 0 0.0 1.0 0.00 0.00 0.00 80 1018.0
20260510100050 41 0 0.0 2.0 0.00 0.00 0.00 79 1018.1
20260510094551 41 0 0.0 1.0 0.00 0.00 0.00 78 1018.1
20260510093045 43 0 0.0 2.0 0.00 0.00 0.00 77 1018.1
20260510091540 44 44 0.0 3.0 0.00 0.00 0.00 78 1018.1
20260510090048 45 45 0.0 5.0 0.00 0.00 0.00 77 1018.1
20260510084601 44 44 1.0 2.0 0.00 0.00 0.00 78 1018.2
20260510083042 44 0 0.0 0.0 0.00 0.00 0.00 78 1018.2
20260510081542 45 0 0.0 1.0 0.00 0.00 0.00 77 1018.2
20260510080056 46 0 0.0 0.0 0.00 0.00 0.00 78 1018.2
20260510074540 45 0 0.0 1.0 0.00 0.00 0.00 78 1018.3
20260510073053 44 0 0.0 0.0 0.00 0.00 0.00 81 1018.2
20260510071547 44 0 0.0 0.0 0.00 0.00 0.00 78 1018.2
20260510070050 45 0 0.0 2.0 0.00 0.00 0.00 79 1018.2
20260510064552 45 44 2.0 3.0 0.00 0.00 0.00 78 1018.1
20260510063047 45 44 1.0 2.0 0.00 0.00 0.00 79 1018.2
20260510061549 46 44 1.0 3.0 0.00 0.00 0.00 78 1018.2
20260510060052 46 0 1.0 3.0 0.00 0.00 0.00 78 1018.2
20260510054546 46 44 2.0 3.0 0.00 0.00 0.00 78 1018.4
20260510053046 46 0 2.0 3.0 0.00 0.00 0.00 77 1018.4
20260510051546 48 44 1.0 2.0 0.00 0.00 0.00 74 1018.4
20260510050059 49 44 0.0 2.0 0.00 0.00 0.00 71 1018.4
20260510044549 51 190 1.0 4.0 0.00 0.00 0.00 70 1018.4
20260510043048 51 44 2.0 4.0 0.00 0.00 0.00 70 1018.4
20260510041546 52 44 2.0 4.0 0.00 0.00 0.00 68 1018.4
20260510040046 53 190 1.0 5.0 0.00 0.00 0.00 65 1018.3
20260510034557 54 190 2.0 7.0 0.00 0.00 0.00 62 1018.1
20260510033054 56 44 5.0 8.0 0.00 0.00 0.00 59 1017.8
20260510031548 58 45 6.0 7.0 0.00 0.00 0.00 54 1017.6
20260510030046 59 190 2.0 3.0 0.00 0.00 0.00 50 1017.4
20260510024547 61 44 0.0 3.0 0.00 0.00 0.00 45 1017.2
20260510023048 61 190 0.0 1.0 0.00 0.00 0.00 45 1017.1
20260510021637 63 190 0.0 2.0 0.00 0.00 0.00 43 1017.0
20260510020046 64 190 2.0 3.0 0.00 0.00 0.00 41 1016.9
20260510014557 64 190 1.0 3.0 0.00 0.00 0.00 40 1017.0
20260510013057 65 190 3.0 5.0 0.00 0.00 0.00 39 1017.0
20260510011546 65 190 3.0 6.0 0.00 0.00 0.00 39 1017.0
20260510010054 65 0 1.0 4.0 0.00 0.00 0.00 41 1017.0
20260510004544 64 190 0.0 4.0 0.00 0.00 0.00 43 1017.1
20260510003046 64 0 0.0 2.0 0.00 0.00 0.00 46 1017.1
20260510001549 63 0 0.0 3.0 0.00 0.00 0.00 49 1017.1
20260510000050 64 0 0.0 2.0 0.00 0.00 0.00 47 1017.0
20260509234548 65 44 1.0 3.0 0.00 0.00 0.00 45 1017.0
20260509233047 66 224 2.0 7.0 0.00 0.00 0.00 39 1017.0
20260509231552 67 224 1.0 6.0 0.00 0.00 0.00 38 1017.0
20260509230053 68 190 0.0 7.0 0.00 0.00 0.00 37 1017.2
20260509224552 68 224 0.0 4.0 0.00 0.00 0.00 37 1017.2
20260509223048 67 224 0.0 6.0 0.00 0.00 0.00 38 1017.3
20260509221548 67 190 1.0 4.0 0.00 0.00 0.00 38 1017.3
20260509220050 68 0 0.0 2.0 0.00 0.00 0.00 37 1017.4
20260509214547 69 190 1.0 8.0 0.00 0.00 0.00 36 1017.4
20260509213104 67 224 0.0 2.0 0.00 0.00 0.00 37 1017.6
20260509211549 67 224 0.0 7.0 0.00 0.00 0.00 36 1017.6
20260509210051 67 0 0.0 3.0 0.00 0.00 0.00 36 1017.7
20260509204542 67 190 0.0 5.0 0.00 0.00 0.00 37 1017.7
20260509203042 67 190 1.0 5.0 0.00 0.00 0.00 35 1017.6
20260509201545 67 224 1.0 9.0 0.00 0.00 0.00 35 1017.6
20260509200052 66 190 4.0 7.0 0.00 0.00 0.00 37 1017.6